Date String (YYYY-MM-DD hh:mm:ss) UTC,Instrument flags,Ambient pressure (hPa),Sample flow (lpm),Bypass flow (lpm),Sample temperature (°C),Ambient temperature (°C),ASC tube jacket temperature (°C),LED temperature (°C),Box temperature (°C),Sample RH (%),Span deviation,Mass concentration (μg/m³),Mass concentration (μg/m³),Mass concentration (μg/m³)
DateTimeUTC,F1_M11,P_M11,Q1_M11,Q2_M11,T1_M11,T2_M11,T3_M11,T4_M11,T5_M11,U1_M11,ZSPAN_M11,X0_M11,X2_M11,X1_M11
2023-03-04 06:00:00,,0818.1,5.00,0.00,22.0,19.9,00.0,30.9,23.5,15.0,-000.4,0010.53,0007.21,0006.76
2023-03-04 06:01:00,,0818.2,5.00,0.00,22.0,20.7,00.0,30.9,23.7,15.4,-000.6,0010.52,0007.36,0006.90
2023-03-04 06:02:00,,0818.2,5.02,0.00,22.1,21.8,00.0,30.8,24.0,15.9,-001.4,0010.62,0007.49,0007.02
2023-03-04 06:03:00,,0818.2,5.00,0.00,22.2,22.5,00.0,30.9,24.2,15.8,-001.8,0010.73,0007.56,0007.08
2023-03-04 06:04:00,,0818.2,4.98,0.00,22.3,22.0,00.0,30.9,24.1,13.5,-002.0,0010.68,0007.41,0006.96
2023-03-04 06:05:00,,0818.1,4.99,0.00,22.2,21.4,00.0,30.9,23.9,11.1,-002.1,0010.66,0007.07,0006.65
2023-03-04 06:06:00,,0818.1,5.00,0.00,22.1,21.0,00.0,30.9,23.7,09.1,-002.0,0010.25,0006.65,0006.24
2023-03-04 06:07:00,,0818.1,5.00,0.00,22.1,20.6,00.0,30.9,23.6,08.6,-001.7,0009.89,0006.33,0005.95
2023-03-04 06:08:00,,0818.1,5.01,0.00,22.0,20.3,00.0,30.9,23.5,08.4,-001.5,0009.66,0006.12,0005.76
2023-03-04 06:09:00,,0818.1,5.00,0.00,21.9,20.1,00.0,30.9,23.4,08.6,-001.6,0009.23,0005.70,0005.38
2023-03-04 06:10:00,,0818.1,5.00,0.00,21.8,19.9,00.0,30.8,23.2,08.5,-002.1,0008.61,0005.16,0004.87
2023-03-04 06:11:00,,0818.1,5.00,0.00,21.7,19.7,00.0,30.8,23.1,08.5,-002.6,0007.94,0004.64,0004.35
2023-03-04 06:12:00,,0818.2,5.01,0.00,21.7,19.7,00.0,30.7,23.1,08.6,-001.1,0007.25,0004.10,0003.84
2023-03-04 06:13:00,,0818.2,5.00,0.00,21.7,20.9,00.0,30.7,23.4,08.8,0000.0,0006.16,0003.50,0003.25
2023-03-04 06:14:00,,0818.2,4.97,0.00,21.9,22.0,00.0,30.7,23.8,08.5,0000.0,0005.09,0002.74,0002.34
2023-03-04 06:15:00,,0818.2,4.99,0.00,22.0,22.8,00.0,30.7,24.0,08.2,0000.0,0004.03,0002.09,0001.70
2023-03-04 06:16:00,,0818.2,5.02,0.00,22.1,22.2,00.0,30.8,23.9,08.1,0000.0,0003.05,0001.85,0001.47
2023-03-04 06:17:00,,0818.2,4.99,0.00,22.0,21.5,00.0,30.8,23.7,08.4,0000.0,0003.33,0001.87,0001.49
2023-03-04 06:18:00,,0818.3,5.01,0.00,21.9,20.9,00.0,30.8,23.5,08.4,0000.0,0004.09,0001.96,0001.54
2023-03-04 06:19:00,,0818.2,5.00,0.00,21.8,20.4,00.0,30.8,23.3,08.2,0000.0,0004.35,0002.08,0001.60
2023-03-04 06:20:00,,0818.2,5.00,0.00,21.7,20.0,00.0,30.7,23.1,08.1,0000.0,0004.51,0002.20,0001.67
2023-03-04 06:21:00,,0818.2,5.00,0.00,21.6,19.8,00.0,30.7,23.0,08.4,0000.0,0004.59,0002.26,0001.72
2023-03-04 06:22:00,,0818.3,5.00,0.00,21.6,19.5,00.0,30.7,22.9,08.6,0000.0,0004.70,0002.34,0001.78
2023-03-04 06:23:00,,0818.4,5.00,0.00,21.5,19.3,00.0,30.6,22.8,08.6,0000.0,0004.88,0002.44,0001.83
2023-03-04 06:24:00,,0818.4,5.01,0.00,21.4,19.7,00.0,30.5,22.9,08.4,0000.0,0004.94,0002.48,0001.87
2023-03-04 06:25:00,,0818.4,5.01,0.00,21.5,21.0,00.0,30.5,23.3,08.3,0000.0,0004.94,0002.50,0001.89
2023-03-04 06:26:00,,0818.4,4.98,0.00,21.7,22.1,00.0,30.5,23.6,08.5,0000.0,0004.97,0002.50,0001.92
2023-03-04 06:27:00,,0818.4,5.03,0.00,21.8,22.6,00.0,30.5,23.8,08.5,0000.0,0005.11,0002.58,0001.96
2023-03-04 06:28:00,,0818.4,5.01,0.00,21.8,21.9,00.0,30.6,23.6,08.4,0000.0,0005.23,0002.67,0001.99
2023-03-04 06:29:00,,0818.3,4.98,0.00,21.8,21.2,00.0,30.6,23.4,08.5,0000.0,0004.46,0002.66,0002.00
2023-03-04 06:30:00,,0818.3,4.99,0.00,21.7,20.7,00.0,30.6,23.3,08.6,0000.0,0004.31,0002.61,0002.00
2023-03-04 06:31:00,,0818.3,5.00,0.00,21.7,20.2,00.0,30.6,23.1,08.7,0000.0,0004.18,0002.58,0002.01
2023-03-04 06:32:00,,0818.4,4.99,0.00,21.6,19.9,00.0,30.6,23.1,09.6,0000.0,0004.17,0002.65,0002.09
2023-03-04 06:33:00,,0818.4,5.00,0.00,21.6,19.8,00.0,30.6,23.1,10.2,0000.0,0004.29,0002.77,0002.23
2023-03-04 06:34:00,,0818.4,5.01,0.00,21.6,19.7,00.0,30.5,23.1,10.5,0000.0,0004.59,0002.93,0002.39
2023-03-04 06:35:00,,0818.4,5.00,0.00,21.6,19.7,00.0,30.5,23.1,10.2,0000.0,0005.47,0003.08,0002.55
2023-03-04 06:36:00,,0818.4,5.00,0.00,21.6,19.6,00.0,30.5,23.2,10.0,0000.0,0006.15,0003.16,0002.70
2023-03-04 06:37:00,,0818.4,5.00,0.00,21.6,19.7,00.0,30.5,23.2,09.8,0000.0,0006.31,0003.26,0002.84
2023-03-04 06:38:00,,0818.4,4.99,0.00,21.6,19.8,00.0,30.4,23.2,09.7,0000.0,0006.39,0003.31,0002.93
2023-03-04 06:39:00,,0818.5,5.01,0.00,21.6,21.0,00.0,30.4,23.4,09.3,0000.0,0006.29,0003.31,0003.00
2023-03-04 06:40:00,,0818.5,5.00,0.00,21.7,22.2,00.0,30.5,23.7,09.5,0000.0,0006.14,0003.33,0003.08
2023-03-04 06:41:00,,0818.5,5.00,0.00,21.9,22.9,00.0,30.5,23.9,10.2,0000.0,0006.30,0003.43,0003.20
2023-03-04 06:42:00,,0818.5,4.99,0.00,21.9,22.4,00.0,30.5,23.8,11.0,0000.0,0006.75,0003.63,0003.37
2023-03-04 06:43:00,,0818.5,5.01,0.00,22.0,21.9,00.0,30.6,23.8,12.1,-000.2,0007.31,0003.84,0003.57
2023-03-04 06:44:00,,0818.7,5.00,0.00,22.0,21.6,00.0,30.6,23.7,12.5,-000.1,0007.71,0004.09,0003.79
2023-03-04 06:45:00,,0818.8,5.02,0.00,22.0,21.3,00.0,30.6,23.7,13.5,-000.8,0007.99,0004.39,0004.06
2023-03-04 06:46:00,,0818.8,5.00,0.00,22.0,21.0,00.0,30.6,23.7,14.4,-000.7,0007.98,0004.75,0004.40
2023-03-04 06:47:00,,0818.7,5.00,0.00,22.0,20.8,00.0,30.6,23.7,15.2,-000.9,0008.07,0005.19,0004.83
2023-03-04 06:48:00,,0818.7,5.01,0.00,22.0,20.6,00.0,30.7,23.6,15.8,-000.9,0008.59,0005.68,0005.31
2023-03-04 06:49:00,,0818.7,5.00,0.00,21.9,20.5,00.0,30.7,23.6,16.2,-000.6,0009.36,0006.25,0005.82
2023-03-04 06:50:00,,0818.7,4.99,0.00,21.9,20.4,00.0,30.7,23.6,16.4,-000.4,0010.73,0006.80,0006.38
2023-03-04 06:51:00,,0818.7,5.01,0.00,21.9,20.3,00.0,30.7,23.6,16.1,-000.6,0011.38,0007.33,0006.88
2023-03-04 06:52:00,,0818.7,5.01,0.00,21.9,20.3,00.0,30.7,23.5,15.2,-000.6,0011.83,0007.70,0007.20
2023-03-04 06:53:00,,0818.7,5.02,0.00,21.9,20.2,00.0,30.7,23.5,14.0,-000.6,0012.04,0007.89,0007.39
2023-03-04 06:54:00,,0818.7,5.00,0.00,21.9,20.1,00.0,30.6,23.5,12.1,-000.8,0011.97,0007.84,0007.34
2023-03-04 06:55:00,,0818.7,5.00,0.00,21.8,20.0,00.0,30.6,23.5,11.9,-001.0,0012.12,0007.73,0007.24
2023-03-04 06:56:00,,0818.7,4.99,0.00,21.8,20.0,00.0,30.6,23.4,12.9,-000.7,0012.39,0007.71,0007.21
2023-03-04 06:57:00,,0818.8,5.01,0.00,21.9,20.9,00.0,30.6,23.6,12.2,-000.5,0012.25,0007.57,0007.08
2023-03-04 06:58:00,,0818.8,4.97,0.00,22.0,22.1,00.0,30.6,23.9,11.3,-000.5,0012.02,0007.33,0006.84
2023-03-04 06:59:00,,0818.8,5.01,0.00,22.1,22.8,00.0,30.7,24.1,11.6,-000.4,0011.77,0007.06,0006.53
